GW3283 Weather Reports


time (UTC)temp
F
wind
direction
speed
knots
gust
knots
rain 1hr
in
rain 24hr
in
rain mn
in
humidity
%
barometer
mb
20260906154552 98 306 0.0 0.9 0.00 0.00 0.00 55 1008.9
20260906153027 96 303 0.0 2.6 0.00 0.00 0.00 58 1008.9
20260906151513 95 304 0.0 2.6 0.00 0.00 0.00 58 1008.7
20260906150045 93 307 0.0 1.7 0.00 0.00 0.00 64 1008.8
20260906144532 92 307 0.9 3.5 0.00 0.00 0.00 64 1008.9
20260906143004 90 308 0.0 2.6 0.00 0.00 0.00 68 1009.0
20260906141542 88 302 0.0 1.7 0.00 0.00 0.00 70 1009.0
20260906140029 86 316 0.0 3.5 0.00 0.00 0.00 66 1008.9
20260906134556 83 94 0.0 1.7 0.00 0.00 0.00 47 1008.9
20260906133034 80 94 0.0 1.7 0.00 0.00 0.00 27 1008.9
20260906131531 79 91 0.0 0.9 0.00 0.00 0.00 1 1008.8
20260906124538 77 91 0.0 1.7 0.00 0.00 0.00 1 1008.6
20260906123018 76 91 0.0 0.9 0.00 0.00 0.00 11 1008.5
20260906121556 76 91 0.0 0.0 0.00 0.00 0.00 18 1008.4
20260906120032 76 91 0.0 0.9 0.00 0.00 0.00 37 1008.2
20260906114512 76 91 0.0 0.9 0.00 0.00 0.00 41 1007.9
20260906113101 76 91 0.0 0.0 0.00 0.00 0.00 35 1007.9
20260906111556 76 91 0.0 1.7 0.00 0.00 0.00 31 1007.8
20260906110019 76 88 0.0 0.0 0.00 0.00 0.00 52 1007.6
20260906104558 77 88 0.0 0.0 0.00 0.00 0.00 51 1007.5
20260906103043 77 88 0.0 0.0 0.00 0.00 0.00 50 1007.5
20260906101528 77 88 0.0 0.0 0.00 0.00 0.00 48 1007.4
20260906100012 77 88 0.0 0.0 0.00 0.00 0.00 49 1007.3
20260906094548 77 88 0.0 0.0 0.00 0.00 0.00 46 1007.2
20260906093037 77 88 0.0 0.0 0.00 0.00 0.00 47 1007.1
20260906091509 77 88 0.0 0.0 0.00 0.00 0.00 55 1007.0
20260906090053 77 88 0.0 0.0 0.00 0.00 0.00 55 1006.9
20260906084542 78 88 0.0 0.0 0.00 0.00 0.00 56 1006.9
20260906083013 78 88 0.0 0.0 0.00 0.00 0.00 61 1006.8
20260906081541 78 88 0.0 0.0 0.00 0.00 0.00 63 1006.9
20260906080030 79 88 0.0 0.0 0.00 0.00 0.00 69 1006.7
20260906074602 79 88 0.0 0.0 0.00 0.00 0.00 69 1006.8
20260906074508 79 88 0.0 0.0 0.00 0.00 0.00 70 1006.8
20260906073043 79 88 0.0 0.0 0.00 0.00 0.00 69 1006.9
20260906071520 80 88 0.0 0.0 0.00 0.00 0.00 71 1007.0
20260906070053 80 88 0.0 0.0 0.00 0.00 0.00 71 1007.0
20260906064535 81 88 0.0 0.0 0.00 0.00 0.00 71 1007.1
20260906063012 81 88 0.0 0.0 0.00 0.00 0.00 72 1007.1
20260906061556 81 88 0.0 0.9 0.00 0.00 0.00 72 1007.1
20260906060036 82 88 0.0 0.0 0.00 0.00 0.00 72 1007.1
20260906054515 82 88 0.0 0.0 0.00 0.00 0.00 72 1007.1
20260906053059 82 88 0.0 0.0 0.00 0.00 0.00 71 1007.1
20260906051539 82 88 0.0 0.0 0.00 0.00 0.00 71 1007.1
20260906050026 82 88 0.0 0.9 0.00 0.00 0.00 71 1007.0
20260906044600 82 88 0.0 0.0 0.00 0.00 0.00 71 1007.0
20260906044505 82 88 0.0 0.0 0.00 0.00 0.00 71 1007.0
20260906043040 82 88 0.0 0.0 0.00 0.00 0.00 71 1006.8
20260906041520 83 88 0.0 0.0 0.00 0.00 0.00 71 1006.7
20260906040003 83 88 0.0 0.0 0.00 0.00 0.00 71 1006.7
20260906034546 83 88 0.0 0.0 0.00 0.00 0.00 71 1006.9
20260906033027 84 88 0.0 0.9 0.00 0.00 0.00 71 1007.0
20260906031503 84 88 0.0 0.0 0.00 0.00 0.00 70 1007.2
20260906030044 85 88 0.0 0.0 0.00 0.00 0.00 69 1007.2
20260906024524 85 88 0.0 0.0 0.00 0.00 0.00 69 1007.2
20260906023009 85 88 0.0 0.0 0.00 0.00 0.00 68 1007.1
20260906021548 86 88 0.0 0.0 0.00 0.00 0.00 68 1006.9
20260906020028 86 88 0.0 0.9 0.00 0.00 0.00 66 1006.5
20260906014526 88 88 0.0 0.9 0.00 0.00 0.00 64 1006.4
20260906013057 89 88 0.0 0.9 0.00 0.00 0.00 61 1006.4
20260906011542 90 88 0.0 3.5 0.00 0.00 0.00 59 1006.1
20260906010017 90 350 0.0 0.0 0.00 0.00 0.00 58 1005.9
20260906004503 91 350 0.0 0.9 0.00 0.00 0.00 56 1005.8
20260906003050 91 350 0.9 1.7 0.00 0.00 0.00 54 1005.8
20260906001525 92 350 0.9 1.7 0.00 0.00 0.00 54 1005.9
20260906000005 92 350 0.9 1.7 0.00 0.00 0.00 52 1005.9
20260905234545 93 350 0.9 1.7 0.00 0.00 0.00 52 1005.9
20260905233031 94 350 0.0 1.7 0.00 0.00 0.00 50 1005.7
20260905231510 95 355 0.9 1.7 0.00 0.00 0.00 49 1005.8
20260905230051 96 355 0.0 0.9 0.00 0.00 0.00 50 1005.8
20260905224535 96 355 0.0 1.7 0.00 0.00 0.00 49 1005.8
20260905223013 96 349 0.0 2.6 0.00 0.00 0.00 48 1005.8
20260905221557 96 350 0.0 4.3 0.00 0.00 0.00 48 1005.9
20260905220041 97 140 0.9 3.5 0.00 0.00 0.00 47 1005.9
20260905214515 97 70 0.9 3.5 0.00 0.00 0.00 47 1006.0
20260905213048 97 98 0.0 3.5 0.00 0.00 0.00 47 1006.0
20260905211539 96 154 0.0 2.6 0.00 0.00 0.00 48 1006.1
20260905210015 96 222 0.0 2.6 0.00 0.00 0.00 46 1006.2
20260905204559 96 269 0.9 3.5 0.00 0.00 0.00 51 1006.5
20260905203034 96 252 0.0 2.6 0.00 0.00 0.00 54 1007.0
20260905201513 97 207 0.9 11.3 0.00 0.00 0.00 51 1007.2
20260905200100 100 224 1.7 5.2 0.00 0.00 0.00 44 1007.2
20260905194529 100 296 0.9 8.7 0.00 0.00 0.00 44 1007.4
20260905193013 100 324 1.7 5.2 0.00 0.00 0.00 45 1007.7
20260905191557 101 323 1.7 4.3 0.00 0.00 0.00 45 1007.8
20260905190035 102 259 1.7 4.3 0.00 0.00 0.00 42 1008.0
20260905184513 104 161 3.5 6.1 0.00 0.00 0.00 40 1008.1
20260905183052 105 323 0.9 4.3 0.00 0.00 0.00 42 1008.3
20260905181535 104 57 1.7 6.1 0.00 0.00 0.00 40 1008.5
20260905180006 102 324 0.9 5.2 0.00 0.00 0.00 43 1008.6
20260905174550 101 115 1.7 3.5 0.00 0.00 0.00 41 1008.8
20260905173032 101 105 0.0 2.6 0.00 0.00 0.00 44 1008.9
20260905171524 101 192 0.9 4.3 0.00 0.00 0.00 43 1009.1
20260905170100 102 109 1.7 3.5 0.00 0.00 0.00 41 1009.3
20260905164540 102 42 0.0 5.2 0.00 0.00 0.00 43 1009.4
20260905163018 100 351 0.0 2.6 0.00 0.00 0.00 49 1009.6
20260905161554 99 355 0.0 2.6 0.00 0.00 0.00 51 1009.7
20260905160043 97 360 0.9 4.3 0.00 0.00 0.00 55 1009.7